TimeEST,TemperatureF,Dew PointF,Humidity,Sea Level PressureIn,VisibilityMPH,Wind Direction,Wind SpeedMPH,Gust SpeedMPH,PrecipitationIn,Events,Conditions,WindDirDegrees,DateUTC
12:26 AM,46.9,39.0,74,30.10,10.0,NW,17.3,-,0.00,,Overcast,320,2013-11-23 05:26:00
12:53 AM,46.0,36.0,68,30.15,10.0,NW,17.3,24.2,0.00,,Overcast,320,2013-11-23 05:53:00
1:53 AM,44.1,33.1,65,30.15,10.0,WNW,16.1,-,N/A,,Partly Cloudy,300,2013-11-23 06:53:00
2:53 AM,42.1,33.1,70,30.19,10.0,NW,9.2,-,N/A,,Mostly Cloudy,320,2013-11-23 07:53:00
3:53 AM,39.0,28.9,67,30.19,10.0,NW,15.0,-,N/A,,Clear,310,2013-11-23 08:53:00
4:53 AM,35.1,27.0,72,30.21,10.0,NW,9.2,-,N/A,,Clear,310,2013-11-23 09:53:00
5:53 AM,35.1,26.1,70,30.22,10.0,WNW,8.1,-,N/A,,Clear,290,2013-11-23 10:53:00
6:53 AM,33.1,24.1,70,30.22,10.0,WNW,6.9,-,N/A,,Clear,290,2013-11-23 11:53:00
7:53 AM,35.1,25.0,67,30.23,10.0,WNW,8.1,-,N/A,,Clear,290,2013-11-23 12:53:00
8:53 AM,37.9,25.0,60,30.23,10.0,WNW,13.8,-,N/A,,Clear,290,2013-11-23 13:53:00
9:53 AM,39.9,25.0,55,30.22,10.0,WNW,15.0,-,N/A,,Clear,290,2013-11-23 14:53:00
10:53 AM,41.0,23.0,49,30.19,10.0,West,15.0,-,N/A,,Clear,270,2013-11-23 15:53:00
11:53 AM,41.0,21.9,47,30.17,10.0,West,18.4,-,N/A,,Clear,280,2013-11-23 16:53:00
12:53 PM,41.0,23.0,49,30.13,10.0,WNW,15.0,-,N/A,,Clear,300,2013-11-23 17:53:00
1:53 PM,42.1,21.0,43,30.10,10.0,WNW,17.3,28.8,N/A,,Clear,300,2013-11-23 18:53:00
2:53 PM,42.1,19.0,40,30.09,10.0,WNW,15.0,24.2,N/A,,Clear,290,2013-11-23 19:53:00
3:53 PM,41.0,16.0,36,30.09,10.0,West,20.7,-,N/A,,Clear,280,2013-11-23 20:53:00
4:53 PM,39.0,14.0,36,30.11,10.0,WNW,23.0,32.2,N/A,,Partly Cloudy,300,2013-11-23 21:53:00
5:53 PM,37.9,17.1,43,30.12,10.0,West,17.3,-,N/A,,Overcast,280,2013-11-23 22:53:00
6:53 PM,35.1,21.9,59,30.16,10.0,NW,24.2,32.2,N/A,,Overcast,320,2013-11-23 23:53:00
7:53 PM,30.9,19.9,64,30.19,10.0,NW,16.1,26.5,0.00,,Overcast,320,2013-11-24 00:53:00
8:53 PM,30.9,12.9,47,30.19,10.0,NW,24.2,34.5,N/A,,Partly Cloudy,310,2013-11-24 01:53:00
9:53 PM,28.9,10.0,45,30.22,10.0,NW,13.8,-,N/A,,Partly Cloudy,310,2013-11-24 02:53:00
10:53 PM,27.0,12.0,53,30.23,10.0,NW,21.9,31.1,N/A,,Mostly Cloudy,310,2013-11-24 03:53:00
11:53 PM,26.1,10.0,51,30.27,10.0,NNW,17.3,29.9,N/A,,Partly Cloudy,330,2013-11-24 04:53:00